Cloud_Cover
100 100 100 100 100 100 100 100 100 100 100 100 100 100 100 100 100 100 100 100 100 100 100 100 100 100 100 100 100 100 100 100 97 100 100 100 100 100 100 100 100 100 100
100 100 100 100 100 100 100 100 100 100 100 100 100 100 100 100 100 100 100 100 100 100 100 100 100 100 100 100 100 100 100 100 100 100 100 100 100 100 100 100 100 100 100
100 100 100 100 100 100 100 100 100 100 100 100 100 100 100 100 100 100 100 100 100 100 100 100 100 100 100 100 100 100 100 100 100 100 100 100 100 100 100 100 100 100 100
100 100 100 100 100 100 100 100 100 100 100 100 100 100 100 100 100 100 100 100 100 100 100 100 100 100 100 100 100 100 100 100 100 100 100 100 100 100 100 100 100 100 100
100 100 100 100 100 100 100 100 100 100 100 100 100 100 100 100 100 100 100 100 100 100 100 100 100 100 100 100 100 100 100 100 100 100 100 100 100 100 100 100 100 100 100
100 100 100 100 100 100 100 100 100 100 100 100 100 100 100 100 100 100 100 100 100 100 100 100 100 100 100 100 100 100 100 100 100 100 100 100 100 100 100 100 100 100 100
100 100 100 100 100 100 100 100 100 100 100 100 100 100 100 100 100 100 100 100 100 100 100 100 100 100 100 100 100 100 100 100 100 100 100 100 100 100 100 100 100 98 100
100 100 100 100 100 100 100 100 100 100 100 100 100 100 100 100 100 100 100 100 100 100 100 100 100 100 100 100 100 100 100 100 100 100 100 100 100 98 100 100 100 100 100
100 100 100 100 100 100 100 100 100 100 100 100 100 100 100 100 100 100 100 100 100 100 100 90 100 100 100 100 100 99 100 100 100 100 100 100 100 100 100 99 100 100 100
18 100 100 100 100 100 100 100 100 100 100 100 100 100 100 100 100 100 100 100 100 100 100 100 100 100 100 100 100 100 100 100 100 100 100 100 100 100 92 100 100 100 99
100 100 100 100 72 99 100 100 100 100 100 100 100 100 100 100 100 100 100 99 96 100 100 100 100 100 100 100 100 99 94 100 100 100 100 100 100 100 90 91 93 100 100
100 100 100 100 100 100 100 100 100 100 100 100 100 100 100 100 100 100 100 100 100 100 100 98 100 100 100 100 100 100 100 100 100 100 100 99 100 100 100 100 100 100 100
100 100 100 100 100 100 100 100 100 100 100 100 100 100 100 100 100 100 100 100 100 100 100 100 100 99 100 100 100 100 100 100 100 100 100 100 100 100 100 100 100 100 15
100 100 100 100 100 100 100 100 100 100 100 100 100 100 100 100 100 100 100 100 100 100 100 100 100 100 100 100 100 100 100 100 87 100 100 97 91 65 12 8 5 5 11
100 100 100 100 100 100 100 100 100 100 100 100 100 100 100 100 100 100 100 100 100 100 100 100 100 100 100 100 100 100 95 78 59 72 67 60 61 43 80 45 6 16 46
100 100 100 100 82 100 100 100 100 100 100 100 100 100 100 100 100 100 100 100 100 100 100 100 100 100 73 94 46 24 80 26 47 33 16 52 100 100 88 39 41 51 78
100 100 100 100 100 100 100 100 100 100 100 100 100 100 100 100 100 100 100 100 100 100 69 58 78 100 100 97 60 66 28 24 52 15 10 70 99 74 55 54 60 68 68
100 100 100 100 100 100 100 100 100 100 100 100 100 100 100 100 100 100 100 100 100 100 100 100 86 36 81 68 84 60 52 61 73 98 99 72 22 43 90 67 58 72 82
100 100 100 100 100 100 100 100 100 100 100 100 100 100 100 100 100 100 100 100 100 100 68 15 49 51 67 69 64 72 86 100 94 60 55 78 98 49 7 51 65 79 78
100 100 100 100 100 100 100 100 100 100 100 100 100 100 100 100 100 100 92 57 51 26 56 23 19 69 88 61 59 85 89 90 91 94 85 62 59 33 67 99 90 97 42
100 100 100 100 100 100 100 100 100 100 100 100 100 100 95 62 92 94 55 22 7 71 84 82 100 93 72 85 78 98 71 100 73 71 65 56 98 100 63 50 61 5 10
100 94 100 100 100 100 100 100 100 100 100 100 100 92 90 72 61 73 86 95 83 61 43 61 71 57 73 92 100 99 79 86 81 75 100 87 46 62 61 41 54 39 16
100 98 99 100 100 100 94 82 84 100 82 67 42 80 97 99 98 84 78 74 65 87 98 74 67 100 100 100 98 40 16 22 33 31 76 88 62 50 82 62 19 51 53
100 100 100 92 99 98 85 99 98 98 100 100 98 100 100 100 100 97 80 85 86 88 85 71 99 100 89 46 5 5 5 10 5 5 11 82 50 14 53 28 57 78 86
99 92 87 100 100 100 100 100 100 100 100 100 100 99 95 95 86 99 100 87 61 56 69 87 89 47 5 5 10 5 32 100 27 10 17 27 51 31 86 95 97 100 100
78 82 100 100 100 100 100 100 100 100 100 93 85 66 51 58 53 96 100 90 82 95 100 88 66 5 5 5 8 44 69 30 15 5 17 23 94 100 96 100 97 100 100